TimeEDT,TemperatureF,Dew PointF,Humidity,Sea Level PressureIn,VisibilityMPH,Wind Direction,Wind SpeedMPH,Gust SpeedMPH,PrecipitationIn,Events,Conditions,WindDirDegrees,DateUTC
12:12 AM,37.4,35.6,93,29.73,10.0,WSW,10.4,-,N/A,,Overcast,250,2013-04-13 04:12:00
12:53 AM,37.0,34.0,89,29.75,10.0,West,10.4,-,N/A,,Overcast,270,2013-04-13 04:53:00
1:53 AM,37.0,34.0,89,29.76,10.0,West,9.2,-,N/A,,Overcast,260,2013-04-13 05:53:00
2:19 AM,37.4,33.8,87,29.74,10.0,West,9.2,-,N/A,,Overcast,260,2013-04-13 06:19:00
2:53 AM,36.0,34.0,93,29.77,10.0,WSW,6.9,-,N/A,,Overcast,250,2013-04-13 06:53:00
3:53 AM,37.0,34.0,89,29.77,10.0,WSW,8.1,-,N/A,,Overcast,240,2013-04-13 07:53:00
4:53 AM,36.0,34.0,93,29.77,10.0,SW,6.9,-,N/A,,Overcast,230,2013-04-13 08:53:00
5:00 AM,37.4,33.8,87,29.75,10.0,SW,9.2,-,N/A,,Overcast,230,2013-04-13 09:00:00
5:09 AM,35.6,33.8,93,29.75,10.0,SW,9.2,-,N/A,,Overcast,230,2013-04-13 09:09:00
5:18 AM,37.4,33.8,87,29.75,10.0,SW,10.4,-,N/A,,Overcast,230,2013-04-13 09:18:00
5:25 AM,35.6,33.8,93,29.75,10.0,WSW,8.1,-,N/A,,Overcast,240,2013-04-13 09:25:00
5:53 AM,36.0,34.0,93,29.77,10.0,WSW,6.9,-,N/A,,Overcast,240,2013-04-13 09:53:00
6:02 AM,35.6,35.6,100,29.75,5.0,SW,9.2,-,0.00,Rain,Light Rain,230,2013-04-13 10:02:00
6:10 AM,35.6,33.8,93,29.75,5.0,WSW,10.4,-,0.01,Snow,Light Snow,240,2013-04-13 10:10:00
6:53 AM,35.1,34.0,96,29.77,10.0,WSW,11.5,-,0.01,,Overcast,250,2013-04-13 10:53:00
7:53 AM,36.0,34.0,93,29.78,10.0,WSW,10.4,-,N/A,,Overcast,240,2013-04-13 11:53:00
8:45 AM,35.6,33.8,93,29.76,10.0,SW,13.8,-,N/A,,Overcast,230,2013-04-13 12:45:00
8:53 AM,36.0,33.1,89,29.78,10.0,SW,12.7,-,N/A,,Overcast,230,2013-04-13 12:53:00
9:53 AM,37.0,33.1,86,29.78,10.0,WSW,15.0,20.7,N/A,,Overcast,240,2013-04-13 13:53:00
10:53 AM,37.9,33.1,83,29.78,10.0,WSW,15.0,21.9,N/A,,Overcast,240,2013-04-13 14:53:00
11:53 AM,37.9,32.0,79,29.79,10.0,WSW,18.4,27.6,N/A,,Overcast,250,2013-04-13 15:53:00
12:21 PM,37.4,33.8,87,29.78,6.0,West,20.7,26.5,N/A,,Haze,260,2013-04-13 16:21:00
12:23 PM,37.4,33.8,87,29.78,2.0,West,23.0,27.6,0.00,Snow,Light Snow,260,2013-04-13 16:23:00
12:26 PM,35.6,33.8,93,29.78,0.8,West,20.7,27.6,0.00,Snow,Light Snow,260,2013-04-13 16:26:00
12:37 PM,35.6,33.8,93,29.78,3.0,WSW,13.8,-,0.00,Snow,Light Snow,240,2013-04-13 16:37:00
12:44 PM,37.4,35.6,93,29.78,9.0,WSW,16.1,23.0,0.01,,Overcast,240,2013-04-13 16:44:00
12:53 PM,39.0,36.0,89,29.80,10.0,WSW,17.3,-,0.01,,Overcast,240,2013-04-13 16:53:00
1:53 PM,39.9,34.0,79,29.80,10.0,WSW,17.3,28.8,N/A,,Overcast,250,2013-04-13 17:53:00
2:53 PM,39.9,34.0,79,29.81,10.0,WSW,20.7,27.6,0.00,,Overcast,250,2013-04-13 18:53:00
3:13 PM,39.2,35.6,87,29.80,10.0,WSW,17.3,24.2,N/A,,Overcast,250,2013-04-13 19:13:00
3:26 PM,41.0,33.8,76,29.80,0.5,West,25.3,35.7,N/A,,Overcast,270,2013-04-13 19:26:00
3:34 PM,33.8,33.8,100,29.81,0.8,West,19.6,35.7,0.01,Snow,Light Snow,260,2013-04-13 19:34:00
3:39 PM,35.6,33.8,93,29.80,2.0,WSW,21.9,29.9,0.01,Snow,Light Snow,250,2013-04-13 19:39:00
3:41 PM,37.4,33.8,87,29.80,4.0,West,20.7,29.9,0.01,Snow,Light Snow,260,2013-04-13 19:41:00
3:53 PM,39.9,33.1,77,29.81,10.0,WSW,20.7,26.5,0.01,,Mostly Cloudy,250,2013-04-13 19:53:00
4:53 PM,37.9,30.9,76,29.84,9.0,West,16.1,-,0.00,,Overcast,270,2013-04-13 20:53:00
5:53 PM,37.0,27.0,67,29.87,10.0,West,20.7,29.9,N/A,,Overcast,270,2013-04-13 21:53:00
6:53 PM,37.9,26.1,62,29.89,10.0,West,12.7,24.2,N/A,,Overcast,270,2013-04-13 22:53:00
7:53 PM,37.0,26.1,65,29.91,10.0,West,15.0,-,N/A,,Overcast,280,2013-04-13 23:53:00
8:53 PM,36.0,27.0,70,29.93,10.0,West,10.4,-,N/A,,Overcast,270,2013-04-14 00:53:00
9:53 PM,36.0,28.0,73,29.95,10.0,West,6.9,-,N/A,,Overcast,260,2013-04-14 01:53:00
10:53 PM,35.1,28.9,78,29.97,10.0,West,11.5,-,N/A,,Overcast,270,2013-04-14 02:53:00
11:53 PM,35.1,30.0,82,29.98,9.0,West,13.8,-,0.00,Snow,Light Snow,260,2013-04-14 03:53:00